Location: Diguira
(13.1838°N, 4.9109°W)
Time: 14:40:09
(UTC+00:00)

Cosmos 1844 - Pass Details

Date: 18 September 2020
Orbit: 824 x 866 km, 70.9° (Epoch: 19 October)

Event Time Altitude Azimuth Distance (km) Brightness Sun altitude
Rises 19:15:58 0° 183° (S) 3,433 6.9 -14.8°
Reaches altitude 10° 19:18:31 10° 177° (S) 2,493 6.1 -15.5°
Maximum altitude 19:23:59 47° 105° (ESE) 1,125 3.9 -16.8°
Drops below altitude 10° 19:29:25 10° 32° (NNE) 2,473 5.9 -18.1°
Sets 19:31:56 0° 27° (NNE) 3,403 6.6 -18.7°
